Flag for U.S.A. Weather past 2 weeks in Olympia, Washington, U.S.A.

Now
68 °F

Overcast.


Feels Like: 68 °F
Forecast: 57 / 69 °F
Wind: 5 mph from Southwest

Location: Olympia Airport

Current Time: Aug 29, 2014 at 3:38:52 PM

Latest Report: Aug 29, 2014 at 2:54 PM


Visibility: 10 mi

Pressure: 29.99 "Hg

Humidity: 68%

Dew point: 57 °F

Location of OlympiaLocation

Historic Weather in Olympia — Graph

°F

Olympia temperature yesterday

Maximum temperature yesterday: 75 °F (at 3:54 PM)
Minimum temperature yesterday: 55 °F (at 6:54 AM)
Average temperature yesterday: 64 °F

Past Weeks' High & Low Weather Summary

 TemperatureHumidityPressure
High90 °F (Aug 26, 4:54 PM)100% (Aug 17, 6:54 AM)30.16 "Hg (Aug 17, 6:54 AM)
Low45 °F (Aug 22, 5:54 AM)24% (Aug 26, 3:54 PM)29.80 "Hg (Aug 19, 4:54 PM)
Average66 °F71%30.01 "Hg
* Reported Aug 14 1:54 PM — Aug 29 1:54 PM, Olympia, Weather by CustomWeather, © 2014

Note: Actual official high and low records may vary slightly from our data, if they occured in-between our weather recording intervals... More about our weather records

Advertising

Olympia weather history for previous 24 hours

 ConditionsComfort  
Time TempWeatherWind HumidityBarometerVisibility
1:54 PM
Aug 29
71 °FBroken clouds.8 mph55%29.98 "Hg10 mi
11:54 AM67 °FCloudy.6 mph61%29.99 "Hg10 mi
10:54 AM67 °FMostly cloudy.9 mph53%30.00 "Hg10 mi
9:54 AM65 °FPartly sunny.9 mph52%29.99 "Hg10 mi
8:56 AM63 °FPartly sunny.8 mph68%29.99 "Hg10 mi
7:54 AM59 °FOvercast.6 mph87%29.98 "Hg10 mi
6:54 AM57 °FOvercast.5 mph93%29.98 "Hg10 mi
5:54 AM55 °FPassing clouds.5 mph96%29.98 "Hg10 mi
4:54 AM55 °FClear.6 mph93%29.98 "Hg10 mi
3:54 AM57 °FOvercast.6 mph96%29.99 "Hg10 mi
2:54 AM56 °FPassing clouds.No wind93%30.00 "Hg10 mi
1:54 AM57 °FClear.No wind93%30.00 "Hg10 mi
12:54 AM55 °FClear.No wind93%30.01 "Hg10 mi
11:54 PM
Aug 28
60 °FClear.No wind90%30.02 "Hg10 mi
10:54 PM60 °FClear.3 mph90%30.03 "Hg10 mi
9:54 PM62 °FClear.3 mph86%30.04 "Hg10 mi
8:54 PM64 °FSunny.5 mph84%30.04 "Hg10 mi
7:54 PM68 °FSunny.6 mph73%30.03 "Hg10 mi
6:54 PM71 °FSunny.8 mph68%30.04 "Hg10 mi
5:54 PM74 °FPassing clouds.10 mph62%30.05 "Hg10 mi
4:54 PM75 °FPartly sunny.10 mph60%30.06 "Hg10 mi
3:54 PM75 °FPartly sunny.10 mph58%30.06 "Hg10 mi
Weather by CustomWeather, © 2014

See weather overviewHow to use our weather pages